Kincheloe, MI

5:50 AM EDT on August 26, 2016 (GMT -0400)
Chippewa County International

Weather History for KCIU - November, 2013

Change the Weather History Date:

Monday, November 4, 2013

  Actual Average Record
Temperature  
Mean Temperature 39 °F -  
Max Temperature 46 °F 44 °F 66 °F (2015)
Min Temperature 32 °F 30 °F 16 °F (1991)
Degree Days  
Heating Degree Days 26    
Moisture  
Dew Point 33 °F    
Average Humidity 75    
Maximum Humidity 93    
Minimum Humidity 61    
Precipitation  
Precipitation 0.00 in - - ()
Sea Level Pressure  
Sea Level Pressure 30.29 in    
Wind  
Wind Speed 16 mph (SE)    
Max Wind Speed 28 mph    
Max Gust Speed 37 mph    
Visibility 10 miles    
Events      
Averages and records for this station are not official NWS values.
T = Trace of Precipitation, MM = Missing Value Source: NWS Daily Summary

Daily Weather History Graph

Daily Weather History Graph

Search for Another Location

Airport or City:

Trip Planner

Search our weather history database for the weather conditions in past years. The results will help you decide how hot, cold, wet, or windy it might be!

Date:

Astronomy

Nov. 04, 2013 Rise Set
Actual Time 7:23 AM EST 5:18 PM EST
Civil Twilight 6:51 AM EST 5:50 PM EST
Nautical Twilight 6:16 AM EST 6:25 PM EST
Astronomical Twilight 5:41 AM EST 7:00 PM EST
Moon 8:36 AM EST (11/4) 6:18 PM EST (11/4)
Length of Visible Light 10h 58m
Length of Day
9h 55m
New Moon, 2% of the Moon is Illuminated
Nov 4
New Moon
Nov 10
First Quarter
Nov 17
Full
Nov 25
Last Quarter
Dec 2
New

Hourly Weather History & Observations

Time (EST) Temp. Windchill Dew Point Humidity Pressure Visibility Wind Dir Wind Speed Gust Speed Precip Events Conditions
12:15 AM 32.0 °F 24.2 °F 30.2 °F 93% 30.39 in 10.0 mi SE 9.2 mph - N/A   Clear
12:35 AM 33.8 °F 27.0 °F 30.2 °F 87% 30.40 in 10.0 mi SE 8.1 mph - N/A   Clear
12:55 AM 33.8 °F 27.7 °F 32.0 °F 93% 30.41 in 10.0 mi SSE 6.9 mph - N/A   Partly Cloudy
1:15 AM 35.6 °F 27.5 °F 33.8 °F 93% 30.41 in 10.0 mi SE 11.5 mph 18.4 mph N/A   Mostly Cloudy
1:35 AM 37.4 °F 27.8 °F 32.0 °F 81% 30.40 in 10.0 mi SE 17.3 mph 21.9 mph N/A   Scattered Clouds
1:55 AM 37.4 °F 28.9 °F 32.0 °F 81% 30.41 in 10.0 mi SE 13.8 mph - N/A   Clear
2:15 AM 37.4 °F 28.9 °F 32.0 °F 81% 30.39 in 10.0 mi SE 13.8 mph - N/A   Clear
2:35 AM 37.4 °F 28.9 °F 32.0 °F 81% 30.39 in 10.0 mi SE 13.8 mph 19.6 mph N/A   Clear
2:55 AM 37.4 °F 29.8 °F 33.8 °F 87% 30.39 in 10.0 mi SE 11.5 mph - N/A   Clear
3:15 AM 37.4 °F 28.2 °F 33.8 °F 87% 30.39 in 10.0 mi SSE 16.1 mph - N/A   Clear
3:35 AM 37.4 °F 28.9 °F 33.8 °F 87% 30.39 in 10.0 mi SSE 13.8 mph - N/A   Partly Cloudy
3:55 AM 37.4 °F 28.2 °F 33.8 °F 87% 30.39 in 10.0 mi SSE 16.1 mph 20.7 mph N/A   Partly Cloudy
4:15 AM 37.4 °F 29.3 °F 33.8 °F 87% 30.39 in 10.0 mi SSE 12.7 mph 19.6 mph N/A   Clear
4:35 AM 37.4 °F 28.2 °F 33.8 °F 87% 30.39 in 10.0 mi SSE 16.1 mph 21.9 mph N/A   Partly Cloudy
4:55 AM 37.4 °F 28.2 °F 33.8 °F 87% 30.39 in 10.0 mi SSE 16.1 mph 20.7 mph N/A   Clear
5:15 AM 37.4 °F 28.2 °F 33.8 °F 87% 30.39 in 10.0 mi SSE 16.1 mph 19.6 mph N/A   Clear
5:35 AM 37.4 °F 28.9 °F 33.8 °F 87% 30.39 in 10.0 mi SSE 13.8 mph 19.6 mph N/A   Clear
5:55 AM 37.4 °F 28.5 °F 32.0 °F 81% 30.39 in 10.0 mi SSE 15.0 mph 20.7 mph N/A   Clear
6:15 AM 37.4 °F 28.5 °F 32.0 °F 81% 30.39 in 10.0 mi SSE 15.0 mph 20.7 mph N/A   Clear
6:35 AM 37.4 °F 28.2 °F 30.2 °F 75% 30.38 in 10.0 mi SSE 16.1 mph 20.7 mph N/A   Partly Cloudy
6:55 AM 37.4 °F 28.2 °F 30.2 °F 75% 30.38 in 10.0 mi SSE 16.1 mph 21.9 mph N/A   Mostly Cloudy
7:15 AM 37.4 °F 27.2 °F 30.2 °F 75% 30.38 in 10.0 mi SE 19.6 mph 24.2 mph N/A   Mostly Cloudy
7:35 AM 37.4 °F 28.9 °F 30.2 °F 75% 30.38 in 10.0 mi SSE 13.8 mph 21.9 mph N/A   Overcast
7:55 AM 37.4 °F 27.5 °F 32.0 °F 81% 30.37 in 10.0 mi SE 18.4 mph 24.2 mph N/A   Mostly Cloudy
8:15 AM 37.4 °F 28.2 °F 32.0 °F 81% 30.38 in 10.0 mi SE 16.1 mph 21.9 mph N/A   Mostly Cloudy
8:35 AM 39.2 °F 29.0 °F 32.0 °F 75% 30.38 in 10.0 mi SSE 21.9 mph 27.6 mph N/A   Overcast
8:55 AM 39.2 °F 29.8 °F 33.8 °F 81% 30.36 in 10.0 mi SSE 18.4 mph 25.3 mph N/A   Overcast
9:15 AM 39.2 °F 29.0 °F 33.8 °F 81% 30.35 in 10.0 mi SE 21.9 mph 28.8 mph N/A   Overcast
9:35 AM 39.2 °F 28.7 °F 33.8 °F 81% 30.34 in 10.0 mi SSE 23.0 mph 31.1 mph N/A   Overcast
9:55 AM 39.2 °F 29.3 °F 33.8 °F 81% 30.34 in 10.0 mi SSE 20.7 mph 26.5 mph N/A   Overcast
10:15 AM 39.2 °F 28.5 °F 33.8 °F 81% 30.34 in 10.0 mi SSE 24.2 mph 35.7 mph N/A   Overcast
10:35 AM 41.0 °F 31.1 °F 33.8 °F 76% 30.34 in 10.0 mi SE 23.0 mph 32.2 mph N/A   Overcast
10:55 AM 41.0 °F 31.1 °F 33.8 °F 76% 30.33 in 10.0 mi SSE 23.0 mph 31.1 mph N/A   Overcast
11:15 AM 42.8 °F 34.5 °F 33.8 °F 70% 30.33 in 10.0 mi SSE 18.4 mph 28.8 mph N/A   Overcast
11:35 AM 42.8 °F 33.3 °F 33.8 °F 70% 30.32 in 10.0 mi SE 24.2 mph 27.6 mph N/A   Mostly Cloudy
11:55 AM 42.8 °F 33.1 °F 33.8 °F 70% 30.32 in 10.0 mi SE 25.3 mph 32.2 mph N/A   Mostly Cloudy
12:15 PM 42.8 °F 33.1 °F 33.8 °F 70% 30.31 in 10.0 mi SE 25.3 mph 31.1 mph N/A   Mostly Cloudy
12:35 PM 42.8 °F 32.9 °F 33.8 °F 70% 30.30 in 10.0 mi SE 26.5 mph 32.2 mph N/A   Mostly Cloudy
12:55 PM 44.6 °F 35.1 °F 33.8 °F 66% 30.28 in 10.0 mi SE 27.6 mph 32.2 mph N/A   Partly Cloudy
1:15 PM 44.6 °F 35.3 °F 33.8 °F 66% 30.26 in 10.0 mi SE 26.5 mph 33.4 mph N/A   Clear
1:35 PM 46.4 °F 38.7 °F 33.8 °F 62% 30.26 in 10.0 mi SE 20.7 mph 31.1 mph N/A   Clear
1:55 PM 46.4 °F 37.9 °F 33.8 °F 62% 30.26 in 10.0 mi SE 25.3 mph 32.2 mph N/A   Clear
2:15 PM 44.6 °F 35.7 °F 33.8 °F 66% 30.25 in 10.0 mi SE 24.2 mph 35.7 mph N/A   Clear
2:35 PM 44.6 °F 35.5 °F 33.8 °F 66% 30.24 in 10.0 mi SE 25.3 mph 32.2 mph N/A   Clear
2:55 PM 44.6 °F 35.7 °F 33.8 °F 66% 30.24 in 10.0 mi SE 24.2 mph 32.2 mph N/A   Clear
3:15 PM 44.6 °F 35.7 °F 33.8 °F 66% 30.23 in 10.0 mi SE 24.2 mph 31.1 mph N/A   Clear
3:35 PM 44.6 °F 35.9 °F 33.8 °F 66% 30.23 in 10.0 mi SE 23.0 mph 31.1 mph N/A   Clear
3:55 PM 44.6 °F 36.4 °F 33.8 °F 66% 30.22 in 10.0 mi ESE 20.7 mph 32.2 mph N/A   Clear
4:15 PM 44.6 °F 35.3 °F 33.8 °F 66% 30.22 in 10.0 mi SE 26.5 mph 34.5 mph N/A   Clear
4:35 PM 44.6 °F 35.5 °F 33.8 °F 66% 30.21 in 10.0 mi SE 25.3 mph - N/A   Clear
4:55 PM 44.6 °F 35.9 °F 35.6 °F 71% 30.21 in 10.0 mi SE 23.0 mph 29.9 mph N/A   Clear
5:15 PM 44.6 °F 35.5 °F 35.6 °F 71% 30.19 in 10.0 mi SE 25.3 mph 31.1 mph N/A   Clear
5:35 PM 42.8 °F 33.1 °F 35.6 °F 76% 30.18 in 10.0 mi SE 25.3 mph 29.9 mph N/A   Scattered Clouds
5:55 PM 42.8 °F 34.3 °F 35.6 °F 76% 30.19 in 10.0 mi SE 19.6 mph 28.8 mph N/A   Scattered Clouds
6:15 PM 42.8 °F 34.3 °F 35.6 °F 76% 30.19 in 10.0 mi SE 19.6 mph 27.6 mph N/A   Partly Cloudy
6:35 PM 42.8 °F 33.8 °F 37.4 °F 81% 30.19 in 10.0 mi SE 21.9 mph 32.2 mph N/A   Scattered Clouds
6:55 PM 42.8 °F 33.3 °F 35.6 °F 76% 30.17 in 10.0 mi SE 24.2 mph 33.4 mph N/A   Mostly Cloudy
7:15 PM 42.8 °F 33.1 °F 35.6 °F 76% 30.16 in 10.0 mi SE 25.3 mph 36.8 mph N/A   Mostly Cloudy
7:35 PM 42.8 °F 33.8 °F 35.6 °F 76% 30.17 in 10.0 mi SE 21.9 mph 31.1 mph N/A   Mostly Cloudy
7:55 PM 42.8 °F 34.0 °F 33.8 °F 70% 30.17 in 10.0 mi SSE 20.7 mph 31.1 mph N/A   Mostly Cloudy
8:15 PM 42.8 °F 34.3 °F 33.8 °F 70% 30.17 in 10.0 mi SSE 19.6 mph 27.6 mph N/A   Overcast
8:35 PM 42.8 °F 34.8 °F 33.8 °F 70% 30.18 in 10.0 mi SSE 17.3 mph 27.6 mph N/A   Overcast
8:55 PM 42.8 °F 36.2 °F 33.8 °F 70% 30.18 in 10.0 mi SSE 12.7 mph 25.3 mph N/A   Overcast
9:15 PM 42.8 °F 35.1 °F 32.0 °F 66% 30.17 in 10.0 mi SSE 16.1 mph 24.2 mph N/A   Overcast
9:35 PM 42.8 °F 34.5 °F 30.2 °F 61% 30.17 in 10.0 mi SSE 18.4 mph 27.6 mph N/A   Overcast
9:55 PM 42.8 °F 35.1 °F 30.2 °F 61% 30.18 in 10.0 mi SSE 16.1 mph 21.9 mph N/A   Overcast
10:15 PM 42.8 °F 35.8 °F 30.2 °F 61% 30.18 in 10.0 mi SSE 13.8 mph 18.4 mph N/A   Overcast
10:35 PM 42.8 °F 36.2 °F 30.2 °F 61% 30.19 in 10.0 mi SSE 12.7 mph 19.6 mph N/A   Overcast
10:55 PM 42.8 °F 34.5 °F 32.0 °F 66% 30.18 in 10.0 mi SSE 18.4 mph 26.5 mph N/A   Overcast
11:15 PM 39.2 °F 31.2 °F 33.8 °F 81% 30.17 in 10.0 mi SSE 13.8 mph 24.2 mph N/A   Overcast
11:35 PM 39.2 °F 31.2 °F 33.8 °F 81% 30.15 in 10.0 mi SSE 13.8 mph 21.9 mph N/A   Overcast
11:55 PM 41.0 °F 33.1 °F 33.8 °F 76% 30.15 in 10.0 mi SSE 15.0 mph 19.6 mph N/A   Overcast